Time,TemperatureF,DewpointF,PressureIn,WindDirection,WindDirectionDegrees,WindSpeedMPH,WindSpeedGustMPH,Humidity,HourlyPrecipIn,Conditions,Clouds,dailyrainin,SolarRadiationWatts/m^2,SoftwareType,DateUTC
2013-10-20 00:02:00,39.2,37.3,29.72,WNW,289,1.0,1.0,93,0.00,,,0.00,0,Wunderground v.1.15,2013-10-20 05:02:00,
2013-10-20 00:12:00,38.8,37.5,29.72,WNW,289,0.0,0.0,95,0.00,,,0.00,0,Wunderground v.1.15,2013-10-20 05:12:00,
2013-10-20 00:22:00,38.5,37.5,29.72,WNW,289,1.0,1.0,96,0.00,,,0.00,0,Wunderground v.1.15,2013-10-20 05:22:00,
2013-10-20 00:32:00,38.2,37.2,29.72,WNW,289,0.0,0.0,96,0.00,,,0.00,0,Wunderground v.1.15,2013-10-20 05:32:00,
2013-10-20 00:42:00,38.0,37.0,29.72,WNW,289,0.0,0.0,96,0.00,,,0.00,0,Wunderground v.1.15,2013-10-20 05:42:00,
2013-10-20 00:52:00,37.6,36.8,29.72,WNW,289,0.0,0.0,97,0.00,,,0.00,0,Wunderground v.1.15,2013-10-20 05:52:00,
2013-10-20 01:12:00,37.6,37.1,29.72,WNW,289,0.0,0.0,98,0.00,,,0.00,0,Wunderground v.1.15,2013-10-20 06:12:00,
2013-10-20 01:22:00,37.5,37.0,29.72,WNW,289,0.0,0.0,98,0.00,,,0.00,0,Wunderground v.1.15,2013-10-20 06:22:00,
2013-10-20 01:32:00,37.5,37.2,29.72,WNW,289,1.0,1.0,99,0.00,,,0.00,0,Wunderground v.1.15,2013-10-20 06:32:00,
2013-10-20 01:42:00,37.9,37.6,29.72,WNW,289,1.0,1.0,99,0.00,,,0.00,0,Wunderground v.1.15,2013-10-20 06:42:00,
2013-10-20 01:52:00,38.3,38.0,29.72,WNW,289,1.0,3.0,99,0.00,,,0.00,0,Wunderground v.1.15,2013-10-20 06:52:00,
2013-10-20 02:02:00,38.6,38.3,29.72,WNW,289,1.0,1.0,99,0.00,,,0.00,0,Wunderground v.1.15,2013-10-20 07:02:00,
2013-10-20 02:12:00,39.2,38.9,29.72,WNW,285,3.0,3.0,99,0.00,,,0.00,0,Wunderground v.1.15,2013-10-20 07:12:00,
2013-10-20 02:22:00,39.5,39.0,29.72,West,268,4.0,4.0,98,0.00,,,0.00,0,Wunderground v.1.15,2013-10-20 07:22:00,
2013-10-20 02:42:00,39.9,38.3,29.73,West,268,5.0,5.0,94,0.00,,,0.00,0,Wunderground v.1.15,2013-10-20 07:42:00,
2013-10-20 02:52:00,39.9,38.0,29.73,West,268,2.0,2.0,93,0.00,,,0.00,0,Wunderground v.1.15,2013-10-20 07:52:00,
2013-10-20 03:12:00,39.9,38.0,29.73,West,267,2.0,2.0,93,0.00,,,0.00,0,Wunderground v.1.15,2013-10-20 08:12:00,
2013-10-20 03:22:00,39.8,37.9,29.73,West,264,2.0,2.0,93,0.00,,,0.00,0,Wunderground v.1.15,2013-10-20 08:22:00,
2013-10-20 03:32:00,39.5,37.6,29.73,West,264,0.0,0.0,93,0.00,,,0.00,0,Wunderground v.1.15,2013-10-20 08:32:00,
2013-10-20 03:42:00,39.3,37.7,29.73,WNW,299,1.0,1.0,94,0.00,,,0.00,0,Wunderground v.1.15,2013-10-20 08:42:00,
2013-10-20 03:52:00,39.8,37.4,29.73,NNW,332,4.0,4.0,91,0.00,,,0.00,0,Wunderground v.1.15,2013-10-20 08:52:00,
2013-10-20 04:12:00,39.9,36.3,29.73,WNW,301,3.0,3.0,87,0.00,,,0.00,0,Wunderground v.1.15,2013-10-20 09:12:00,
2013-10-20 04:22:00,39.8,36.0,29.73,NW,312,2.0,2.0,86,0.00,,,0.00,0,Wunderground v.1.15,2013-10-20 09:22:00,
2013-10-20 04:32:00,39.6,35.5,29.73,NW,312,1.0,1.0,85,0.00,,,0.00,0,Wunderground v.1.15,2013-10-20 09:32:00,
2013-10-20 04:42:00,39.3,35.2,29.73,NW,312,0.0,0.0,85,0.00,,,0.00,0,Wunderground v.1.15,2013-10-20 09:42:00,
2013-10-20 04:52:00,39.2,35.4,29.74,NW,312,1.0,1.0,86,0.00,,,0.00,0,Wunderground v.1.15,2013-10-20 09:52:00,
2013-10-20 05:02:00,38.9,35.4,29.74,NW,312,1.0,1.0,87,0.00,,,0.00,0,Wunderground v.1.15,2013-10-20 10:02:00,
2013-10-20 05:12:00,38.2,35.5,29.74,NW,312,0.0,0.0,90,0.00,,,0.00,0,Wunderground v.1.15,2013-10-20 10:12:00,
2013-10-20 05:22:00,37.5,35.1,29.75,NW,312,0.0,0.0,91,0.00,,,0.00,0,Wunderground v.1.15,2013-10-20 10:22:00,
2013-10-20 05:42:00,36.2,34.4,29.75,NW,312,0.0,0.0,93,0.00,,,0.00,0,Wunderground v.1.15,2013-10-20 10:42:00,
2013-10-20 05:52:00,35.6,34.3,29.75,NW,312,0.0,0.0,95,0.00,,,0.00,0,Wunderground v.1.15,2013-10-20 10:52:00,
2013-10-20 06:02:00,36.3,35.5,29.76,NW,312,1.0,1.0,97,0.00,,,0.00,0,Wunderground v.1.15,2013-10-20 11:02:00,
2013-10-20 06:12:00,36.3,35.5,29.76,NW,312,1.0,1.0,97,0.00,,,0.00,0,Wunderground v.1.15,2013-10-20 11:12:00,
2013-10-20 06:22:00,36.5,36.0,29.76,NW,312,0.0,0.0,98,0.00,,,0.00,0,Wunderground v.1.15,2013-10-20 11:22:00,
2013-10-20 06:33:00,36.2,35.7,29.77,NW,312,1.0,1.0,98,0.00,,,0.00,0,Wunderground v.1.15,2013-10-20 11:33:00,
2013-10-20 06:42:00,35.8,35.3,29.77,NW,312,0.0,1.0,98,0.00,,,0.00,0,Wunderground v.1.15,2013-10-20 11:42:00,
2013-10-20 06:52:00,35.3,34.8,29.77,NW,312,0.0,0.0,98,0.00,,,0.00,0,Wunderground v.1.15,2013-10-20 11:52:00,
2013-10-20 07:03:00,35.0,34.5,29.77,NW,312,0.0,0.0,98,0.00,,,0.00,0,Wunderground v.1.15,2013-10-20 12:03:00,
2013-10-20 07:12:00,34.7,34.4,29.77,NW,312,0.0,0.0,99,0.00,,,0.00,0,Wunderground v.1.15,2013-10-20 12:12:00,
2013-10-20 07:22:00,34.3,34.0,29.78,NW,312,0.0,0.0,99,0.00,,,0.00,0,Wunderground v.1.15,2013-10-20 12:22:00,
2013-10-20 07:32:00,35.0,35.0,29.78,NW,312,0.0,0.0,100,0.00,,,0.00,9,Wunderground v.1.15,2013-10-20 12:32:00,
2013-10-20 07:42:00,35.0,35.0,29.78,NW,312,0.0,0.0,100,0.00,,,0.00,23,Wunderground v.1.15,2013-10-20 12:42:00,
2013-10-20 07:52:00,36.0,36.0,29.79,NW,312,0.0,0.0,100,0.00,,,0.00,56,Wunderground v.1.15,2013-10-20 12:52:00,
2013-10-20 08:02:00,36.3,36.3,29.79,NW,312,1.0,2.0,100,0.00,,,0.00,90,Wunderground v.1.15,2013-10-20 13:02:00,
2013-10-20 08:12:00,36.5,36.5,29.79,NW,312,3.0,4.0,100,0.00,,,0.00,113,Wunderground v.1.15,2013-10-20 13:12:00,
2013-10-20 08:22:00,36.9,36.9,29.80,NW,312,2.0,2.0,100,0.00,,,0.00,146,Wunderground v.1.15,2013-10-20 13:22:00,
2013-10-20 08:32:00,37.8,37.8,29.80,NW,312,1.0,1.0,100,0.00,,,0.00,185,Wunderground v.1.15,2013-10-20 13:32:00,
2013-10-20 08:42:00,38.3,37.8,29.80,WNW,285,2.0,3.0,98,0.00,,,0.00,192,Wunderground v.1.15,2013-10-20 13:42:00,
2013-10-20 08:52:00,39.3,38.8,29.81,WNW,285,1.0,1.0,98,0.00,,,0.00,222,Wunderground v.1.15,2013-10-20 13:52:00,
2013-10-20 09:12:00,40.9,39.3,29.81,WSW,254,2.0,2.0,94,0.00,,,0.00,236,Wunderground v.1.15,2013-10-20 14:12:00,
2013-10-20 09:22:00,41.6,39.2,29.81,WSW,258,3.0,3.0,91,0.00,,,0.00,280,Wunderground v.1.15,2013-10-20 14:22:00,
2013-10-20 09:32:00,41.9,39.2,29.81,WNW,292,4.0,7.0,90,0.00,,,0.00,269,Wunderground v.1.15,2013-10-20 14:32:00,
2013-10-20 09:42:00,42.5,38.9,29.81,SW,232,5.0,6.0,87,0.00,,,0.00,329,Wunderground v.1.15,2013-10-20 14:42:00,
2013-10-20 09:52:00,42.9,39.0,29.81,SW,236,4.0,6.0,86,0.00,,,0.00,348,Wunderground v.1.15,2013-10-20 14:52:00,
2013-10-20 10:02:00,43.5,39.6,29.81,WNW,288,5.0,5.0,86,0.00,,,0.00,343,Wunderground v.1.15,2013-10-20 15:02:00,
2013-10-20 10:12:00,43.6,38.2,29.81,WNW,287,4.0,4.0,81,0.00,,,0.00,348,Wunderground v.1.15,2013-10-20 15:12:00,
2013-10-20 10:22:00,43.8,37.1,29.81,SW,227,4.0,4.0,77,0.00,,,0.00,285,Wunderground v.1.15,2013-10-20 15:22:00,
2013-10-20 10:32:00,43.6,36.9,29.81,WSW,256,6.0,6.0,77,0.00,,,0.00,283,Wunderground v.1.15,2013-10-20 15:32:00,
2013-10-20 10:42:00,43.9,36.8,29.81,SW,232,3.0,3.0,76,0.00,,,0.00,318,Wunderground v.1.15,2013-10-20 15:42:00,
2013-10-20 10:52:00,43.9,36.5,29.81,SSW,210,5.0,8.0,75,0.00,,,0.00,322,Wunderground v.1.15,2013-10-20 15:52:00,
2013-10-20 11:03:00,44.2,35.7,29.81,WSW,248,4.0,6.0,72,0.00,,,0.00,357,Wunderground v.1.15,2013-10-20 16:03:00,
2013-10-20 11:12:00,44.1,35.6,29.81,West,274,5.0,6.0,72,0.00,,,0.00,315,Wunderground v.1.15,2013-10-20 16:12:00,
2013-10-20 11:22:00,44.6,36.8,29.81,WNW,291,4.0,4.0,74,0.00,,,0.00,343,Wunderground v.1.15,2013-10-20 16:22:00,
2013-10-20 11:32:00,44.9,35.7,29.81,SSW,206,2.0,3.0,70,0.00,,,0.00,357,Wunderground v.1.15,2013-10-20 16:32:00,
2013-10-20 11:42:00,45.1,35.9,29.81,SW,222,3.0,3.0,70,0.00,,,0.00,340,Wunderground v.1.15,2013-10-20 16:42:00,
2013-10-20 11:52:00,45.4,36.2,29.81,West,261,3.0,3.0,70,0.00,,,0.00,285,Wunderground v.1.15,2013-10-20 16:52:00,
2013-10-20 12:02:00,45.7,36.5,29.80,SSW,209,3.0,3.0,70,0.00,,,0.00,442,Wunderground v.1.15,2013-10-20 17:02:00,
2013-10-20 12:12:00,46.2,36.6,29.80,SW,226,3.0,5.0,69,0.00,,,0.00,438,Wunderground v.1.15,2013-10-20 17:12:00,
2013-10-20 12:22:00,46.7,35.9,29.80,SW,227,4.0,4.0,66,0.00,,,0.00,484,Wunderground v.1.15,2013-10-20 17:22:00,
2013-10-20 12:42:00,46.8,34.0,29.80,SW,217,7.0,7.0,61,0.00,,,0.00,521,Wunderground v.1.15,2013-10-20 17:42:00,
2013-10-20 12:52:00,47.1,34.7,29.79,SW,220,5.0,5.0,62,0.00,,,0.00,452,Wunderground v.1.15,2013-10-20 17:52:00,
2013-10-20 13:02:00,47.0,35.4,29.78,SW,234,6.0,6.0,64,0.00,,,0.00,401,Wunderground v.1.15,2013-10-20 18:02:00,
2013-10-20 13:12:00,47.1,34.7,29.78,South,184,5.0,6.0,62,0.00,,,0.00,391,Wunderground v.1.15,2013-10-20 18:12:00,
2013-10-20 13:22:00,47.4,38.1,29.78,SSW,209,3.0,4.0,70,0.00,,,0.00,387,Wunderground v.1.15,2013-10-20 18:22:00,
2013-10-20 13:32:00,47.4,39.2,29.77,SSE,150,5.0,6.0,73,0.00,,,0.00,320,Wunderground v.1.15,2013-10-20 18:32:00,
2013-10-20 13:42:00,47.3,39.1,29.77,SE,144,5.0,6.0,73,0.00,,,0.00,352,Wunderground v.1.15,2013-10-20 18:42:00,
2013-10-20 13:52:00,47.3,39.1,29.77,South,185,5.0,6.0,73,0.00,,,0.00,357,Wunderground v.1.15,2013-10-20 18:52:00,
2013-10-20 14:02:00,47.4,38.8,29.77,South,191,6.0,6.0,72,0.00,,,0.00,380,Wunderground v.1.15,2013-10-20 19:02:00,
2013-10-20 14:12:00,47.6,38.7,29.77,South,185,6.0,6.0,71,0.00,,,0.00,303,Wunderground v.1.15,2013-10-20 19:12:00,
2013-10-20 14:22:00,47.1,38.5,29.76,SSE,152,7.0,7.0,72,0.00,,,0.00,236,Wunderground v.1.15,2013-10-20 19:22:00,
2013-10-20 14:32:00,46.5,38.0,29.76,SE,141,7.0,7.0,72,0.00,,,0.00,213,Wunderground v.1.15,2013-10-20 19:32:00,
2013-10-20 14:42:00,46.5,38.7,29.76,SSE,164,8.0,8.0,74,0.00,,,0.00,185,Wunderground v.1.15,2013-10-20 19:42:00,
2013-10-20 14:52:00,46.2,37.0,29.76,South,171,8.0,8.0,70,0.00,,,0.00,162,Wunderground v.1.15,2013-10-20 19:52:00,
2013-10-20 15:02:00,45.8,36.2,29.75,South,188,7.0,7.0,69,0.00,,,0.00,130,Wunderground v.1.15,2013-10-20 20:02:00,
2013-10-20 15:12:00,45.8,37.3,29.75,South,182,7.0,7.0,72,0.00,,,0.00,118,Wunderground v.1.15,2013-10-20 20:12:00,
2013-10-20 15:22:00,45.8,38.0,29.75,SSW,200,8.0,11.0,74,0.00,,,0.00,91,Wunderground v.1.15,2013-10-20 20:22:00,
2013-10-20 15:33:00,45.8,36.6,29.75,South,189,8.0,8.0,70,0.00,,,0.00,76,Wunderground v.1.15,2013-10-20 20:33:00,
2013-10-20 15:42:00,46.0,36.8,29.75,South,186,7.0,8.0,70,0.00,,,0.00,67,Wunderground v.1.15,2013-10-20 20:42:00,
2013-10-20 15:52:00,46.0,35.7,29.74,SSW,199,7.0,7.0,67,0.00,,,0.00,56,Wunderground v.1.15,2013-10-20 20:52:00,
2013-10-20 16:02:00,46.0,36.8,29.74,South,188,6.0,6.0,70,0.00,,,0.00,40,Wunderground v.1.15,2013-10-20 21:02:00,
2013-10-20 16:12:00,45.4,34.7,29.74,SSW,202,10.0,10.0,66,0.00,,,0.00,32,Wunderground v.1.15,2013-10-20 21:12:00,
2013-10-20 16:22:00,44.2,35.7,29.74,SW,215,8.0,12.0,72,0.00,,,0.00,14,Wunderground v.1.15,2013-10-20 21:22:00,
2013-10-20 16:42:00,42.9,38.1,29.74,SSW,198,4.0,4.0,83,0.00,,,0.01,16,Wunderground v.1.15,2013-10-20 21:42:00,
2013-10-20 16:52:00,42.8,38.6,29.73,South,186,2.0,2.0,85,0.00,,,0.01,16,Wunderground v.1.15,2013-10-20 21:52:00,
2013-10-20 17:02:00,42.5,39.2,29.72,South,186,0.0,0.0,88,0.00,,,0.01,11,Wunderground v.1.15,2013-10-20 22:02:00,
2013-10-20 17:12:00,42.3,39.6,29.72,South,186,0.0,0.0,90,0.00,,,0.02,7,Wunderground v.1.15,2013-10-20 22:12:00,
2013-10-20 17:22:00,42.2,40.0,29.72,South,186,0.0,0.0,92,0.00,,,0.02,0,Wunderground v.1.15,2013-10-20 22:22:00,
2013-10-20 17:32:00,42.2,40.6,29.72,South,186,0.0,0.0,94,0.00,,,0.03,0,Wunderground v.1.15,2013-10-20 22:32:00,
2013-10-20 17:42:00,42.2,40.9,29.72,South,186,0.0,0.0,95,0.00,,,0.03,0,Wunderground v.1.15,2013-10-20 22:42:00,
2013-10-20 17:52:00,42.5,41.4,29.72,South,186,0.0,1.0,96,0.00,,,0.03,0,Wunderground v.1.15,2013-10-20 22:52:00,
2013-10-20 18:03:00,43.5,42.4,29.71,SSW,196,3.0,3.0,96,0.00,,,0.03,0,Wunderground v.1.15,2013-10-20 23:03:00,
2013-10-20 18:12:00,43.8,42.7,29.71,SSW,202,1.0,3.0,96,0.00,,,0.04,0,Wunderground v.1.15,2013-10-20 23:12:00,
2013-10-20 18:22:00,43.6,42.5,29.72,SSW,202,0.0,0.0,96,0.00,,,0.04,0,Wunderground v.1.15,2013-10-20 23:22:00,
2013-10-20 18:32:00,43.5,42.4,29.72,SSW,202,0.0,0.0,96,0.00,,,0.05,0,Wunderground v.1.15,2013-10-20 23:32:00,
2013-10-20 18:42:00,43.5,42.7,29.72,SSW,202,0.0,0.0,97,0.00,,,0.05,0,Wunderground v.1.15,2013-10-20 23:42:00,
2013-10-20 18:52:00,43.3,42.8,29.71,SSW,202,0.0,1.0,98,0.00,,,0.05,0,Wunderground v.1.15,2013-10-20 23:52:00,
2013-10-20 19:02:00,43.3,42.8,29.70,SSW,202,0.0,1.0,98,0.00,,,0.06,0,Wunderground v.1.15,2013-10-21 00:02:00,
2013-10-20 19:12:00,43.3,43.0,29.70,SSW,202,1.0,1.0,99,0.04,,,0.06,0,Wunderground v.1.15,2013-10-21 00:12:00,
2013-10-20 19:22:00,43.5,43.5,29.70,SSW,206,1.0,1.0,100,0.04,,,0.07,0,Wunderground v.1.15,2013-10-21 00:22:00,
2013-10-20 19:32:00,43.5,43.5,29.69,SSW,206,0.0,0.0,100,0.00,,,0.07,0,Wunderground v.1.15,2013-10-21 00:32:00,
2013-10-20 19:42:00,43.5,43.5,29.69,SSW,209,0.0,0.0,100,0.00,,,0.07,0,Wunderground v.1.15,2013-10-21 00:42:00,
2013-10-20 19:52:00,43.6,43.6,29.69,WSW,244,0.0,3.0,100,0.00,,,0.07,0,Wunderground v.1.15,2013-10-21 00:52:00,
2013-10-20 20:12:00,44.5,44.5,29.68,WNW,287,2.0,2.0,100,0.00,,,0.08,0,Wunderground v.1.15,2013-10-21 01:12:00,
2013-10-20 20:22:00,44.6,44.6,29.67,West,280,1.0,5.0,100,0.00,,,0.09,0,Wunderground v.1.15,2013-10-21 01:22:00,
2013-10-20 20:42:00,45.2,45.2,29.67,WSW,241,4.0,4.0,100,0.00,,,0.09,0,Wunderground v.1.15,2013-10-21 01:42:00,
2013-10-20 20:52:00,45.4,45.4,29.66,SW,227,2.0,2.0,100,0.00,,,0.09,0,Wunderground v.1.15,2013-10-21 01:52:00,
2013-10-20 21:03:00,45.5,45.2,29.65,SSW,208,3.0,3.0,99,0.00,,,0.09,0,Wunderground v.1.15,2013-10-21 02:03:00,
2013-10-20 21:12:00,45.4,45.1,29.65,SW,233,2.0,4.0,99,0.00,,,0.09,0,Wunderground v.1.15,2013-10-21 02:12:00,
2013-10-20 21:22:00,45.2,44.9,29.65,WSW,239,2.0,2.0,99,0.00,,,0.09,0,Wunderground v.1.15,2013-10-21 02:22:00,
2013-10-20 21:32:00,45.1,44.8,29.64,SW,232,2.0,2.0,99,0.00,,,0.09,0,Wunderground v.1.15,2013-10-21 02:32:00,
2013-10-20 21:42:00,44.9,44.6,29.64,WSW,247,1.0,1.0,99,0.00,,,0.09,0,Wunderground v.1.15,2013-10-21 02:42:00,
2013-10-20 21:52:00,44.6,44.3,29.64,WSW,250,2.0,2.0,99,0.00,,,0.09,0,Wunderground v.1.15,2013-10-21 02:52:00,
2013-10-20 22:02:00,44.5,44.2,29.64,WSW,250,2.0,2.0,99,0.00,,,0.09,0,Wunderground v.1.15,2013-10-21 03:02:00,
2013-10-20 22:12:00,44.5,44.2,29.64,WSW,250,1.0,1.0,99,0.00,,,0.09,0,Wunderground v.1.15,2013-10-21 03:12:00,
2013-10-20 22:22:00,44.3,44.3,29.64,WSW,251,3.0,3.0,100,0.00,,,0.09,0,Wunderground v.1.15,2013-10-21 03:22:00,
2013-10-20 22:33:00,44.3,44.3,29.64,West,263,3.0,4.0,100,0.00,,,0.09,0,Wunderground v.1.15,2013-10-21 03:33:00,
2013-10-20 22:42:00,44.2,44.2,29.64,West,263,4.0,4.0,100,0.00,,,0.09,0,Wunderground v.1.15,2013-10-21 03:42:00,
2013-10-20 22:52:00,44.3,44.3,29.64,West,270,3.0,5.0,100,0.00,,,0.09,0,Wunderground v.1.15,2013-10-21 03:52:00,
2013-10-20 23:02:00,44.3,44.3,29.64,WSW,250,2.0,2.0,100,0.00,,,0.09,0,Wunderground v.1.15,2013-10-21 04:02:00,
2013-10-20 23:12:00,44.3,44.3,29.64,WSW,250,1.0,1.0,100,0.00,,,0.09,0,Wunderground v.1.15,2013-10-21 04:12:00,
2013-10-20 23:22:00,44.5,44.5,29.64,WSW,250,0.0,1.0,100,0.00,,,0.09,0,Wunderground v.1.15,2013-10-21 04:22:00,
2013-10-20 23:42:00,44.5,44.5,29.64,WSW,250,0.0,0.0,100,0.00,,,0.09,0,Wunderground v.1.15,2013-10-21 04:42:00,
2013-10-20 23:52:00,44.5,44.5,29.64,WSW,250,0.0,0.0,100,0.00,,,0.09,0,Wunderground v.1.15,2013-10-21 04:52:00,